Regional Weather Roundup
Issued by NWS

Home | Current Version | Previous Version | Graphics & Text | Print | Product List | Glossary On
Versions: 1 2 3 4 5 6 7 8 9 10 11 12 13 14 15 16 17 18 19 20 21 22 23 24 25 26 27 28 29 30 31 32 33 34 35 36 37 38 39 40 41 42 43 44 45 46 47 48 49 50
000
ASUS45 KBOU 040110
RWRCO

WEATHER ROUNDUP FOR COLORADO
NATIONAL WEATHER SERVICE DENVER/BOULDER CO
700 PM MDT FRI JUL 03 2015

NOTE: "FAIR" INDICATES FEW OR NO CLOUDS BELOW 12000 FEET WITH NO
SIGNIFICANT WEATHER AND/OR OBSTRUCTIONS TO VISIBILITY.

COZ001>005-013-030-031-040200-
...NORTHWEST COLORADO...

CITY           SKY/WX    TMP DP  RH WIND       PRES   REMARKS
CRAIG          SUNNY     90  33  13 N3        30.03F
HAYDEN         SUNNY     84  34  16 N7        30.07F
MEEKER         MOSUNNY   83  50  31 S9        30.05F
MOUNT WERNER   NOT AVBL
STEAMBOAT SPGS SUNNY     84  35  17 NW6       30.10F
WALDEN         MOSUNNY   75  32  20 NW10      30.23S
$$

COZ006>008-011-040200-
...WEST CENTRAL VALLEYS...

CITY           SKY/WX    TMP DP  RH WIND       PRES   REMARKS
GRAND JUNCTION MOSUNNY   94  45  18 E15       29.91S
MONTROSE       PTSUNNY   82  49  31 E15G21    30.07S
EAGLE          MOSUNNY   86  43  22 SW14G21   30.09F
RIFLE          MOSUNNY   89  45  21 NW7       29.98F
DELTA          PTSUNNY   82  51  33 NE13      30.02R
NUCLA          TSTM      72  52  49 E9        30.13R
$$

COZ017>023-064>068-040200-
...SOUTHWEST COLORADO...

CITY           SKY/WX    TMP DP  RH WIND       PRES   REMARKS
DURANGO        CLOUDY    73  51  46 E7        30.19R
CORTEZ         SUNNY     79  53  40 NE17G23   30.09R
PAGOSA SPRINGS CLOUDY    66  49  55 E8        30.30F
TELLURIDE      CLOUDY    58  51  78 CALM      30.41F
WOLF CREEK PAS NOT AVBL
$$

COZ009-010-012-014-032>034-037-058>063-040200-
...CENTRAL COLORADO...

CITY           SKY/WX    TMP DP  RH WIND       PRES   REMARKS
ASPEN          MOSUNNY   75  45  34 SE9       30.20F
BUENA VISTA    CLOUDY    71  48  42 S12       30.26R
COPPER MTN     PTSUNNY   64  32  29 W17G23    30.57S
BERTHOUD PASS  FAIR      46  36  66 E21G31    30.63S
COTTONWOOD PAS NOT AVBL
GUNNISON       CLOUDY    70  45  40 SE5       30.28R
KREMMLING      SUNNY     82  19   9 NW9       30.16S
LEADVILLE      MOSUNNY   69  36  29 NW9       30.37S
MONARCH PASS   CLOUDY    50  43  76 E9        30.67F
SALIDA         CLOUDY    72  48  42 SE13G21   30.30R
SUNLIGHT       MOSUNNY   68  41  37 CALM      30.49F
WILKERSON PASS PTSUNNY   48  45  87 S8G18     30.56R
$$

COZ069>075-040200-
...SAN LUIS VALLEY/SANGRE DE CRISTO MOUNTAINS...

CITY           SKY/WX    TMP DP  RH WIND       PRES   REMARKS
ALAMOSA        CLOUDY    68  48  48 SE8       30.24R
LA VETA PASS   CLOUDY    52  45  76 MISG      30.46R
SAGUACHE       CLOUDY    70  46  43 S8        30.27R
$$

COZ035-036-038>040-040200-
...NORTHERN COLORADO FRONT RANGE...

CITY           SKY/WX    TMP DP  RH WIND       PRES   REMARKS
DENVER INTL AP PTSUNNY   82  52  35 VRB3      30.07R
DMNS CITY PARK   N/A     82  52  35 SE9       30.06S
AURORA         MOSUNNY   81  54  38 SE6       30.10R
FRONT RANGE AP NOT AVBL
ERIE MUNI ARPT SUNNY     84  48  28 CALM      30.05R
BOULDER MUN AP SUNNY     81  54  39 CALM      30.06S
CENTENNIAL     MOSUNNY   79  54  41 SE9       30.10S
BROOMFIELD     MOSUNNY   82  48  30 CALM      30.09S
FORT COLLINS   MOSUNNY   82  57  42 NE8       30.04R
LONGMONT       MOSUNNY   87  55  32 W5        30.06S
$$

COZ041-046-047-076>085-087-088-040200-
...PIKES PEAK/PALMER DIVIDE AND SOUTHERN FOOTHILLS...

CITY           SKY/WX    TMP DP  RH WIND       PRES   REMARKS
COLO. SPRINGS  TSTM      74  57  55 SW7       30.16R
A. F. ACADEMY  DRIZZLE   66  54  63 VRB1      30.20R
ELLICOTT       PTSUNNY  N/A N/A N/A SE8       30.14S
FALCON         TSTM      68  54  62 NW30G51   30.22R VSB 3/4
FORT CARSON    DRIZZLE   75  55  50 W8        30.12R
LIMON          SUNNY     78  55  44 SE7       30.08S
MONUMENT HILL  NOT AVBL
TRINIDAD       LGT RAIN  70  59  68 W13       30.13R
$$

COZ042>045-048>051-090-091-040200-
...NORTHEAST COLORADO...

CITY           SKY/WX    TMP DP  RH WIND       PRES   REMARKS
GREELEY ARPT   MOSUNNY   81  57  44 E10       30.04R
AKRON          PTSUNNY   79  60  52 E3        30.05S
BURLINGTON     SUNNY     81  55  40 E10       30.03S
WRAY           SUNNY     83  53  34 E9        30.00R
STERLING       PTSUNNY   81  57  44 NE5         N/A
HOLYOKE        SUNNY     84  55  37 E12       30.01S
FORT MORGAN    PTSUNNY   78  56  48 NE8       30.04S
$$

COZ086-089-092>099-040200-
...SOUTHEAST COLORADO...

CITY           SKY/WX    TMP DP  RH WIND       PRES   REMARKS
PUEBLO         PTSUNNY   86  55  34 S6        30.02R
LA JUNTA       SUNNY     85  57  38 E15       29.98R
LAMAR          SUNNY     87  58  37 E12       29.96R
SPRINGFIELD      N/A     81  55  40 SE13      30.03R
$$


USA.gov is the U.S. government's official web portal to all federal, state and local government web resources and services.